Other Public Products
Issued by NWS Grand Forks, ND

Home | Current Version | Previous Version | Graphics & Text | Print | Product List | Glossary On
Versions: 1 2 3 4 5 6 7 8 9 10 11 12 13 14 15 16 17 18 19 20 21 22 23 24 25 26 27 28 29 30 31 32 33 34 35 36 37 38 39 40 41 42 43 44 45 46 47 48 49 50
000
FPUS83 KFGF 201231
OPUFGF
PRAIRIE TO PINES WEATHER ROUNDUP
NATIONAL WEATHER SERVICE EASTERN NORTH DAKOTA/GRAND FORKS ND
600 AM CST MON FEB 20 2017

 **SATELLITE DATA USED TO AUGMENT SKY COVER AT AUTOMATED STATIONS**
 *****  WEATHER ACROSS EASTERN NORTH DAKOTA  *****

CITY           SKY/WX    TMP DP  RH WIND       PRES   REMARKS
GRAND FORKS    FOG       37  34  89 W5        29.59R VSB 1/2
6HR MIN TEMP:  37; 6HR MAX TEMP:  41;

GRAND FORKS AF FOG       36  36 100 S3        29.59R VSB 1/2
GRAND CITY NWS NOT AVBL
BUXTON         NOT AVBL
DEVILS LAKE    LGT RAIN  34  34 100 NW13      29.58R WCI  25
6HR MIN TEMP:  34; 6HR MAX TEMP:  37; 6HR PCP: TRACE;

FARGO          LGT RAIN  51  48  89 S17G26    29.61R
6HR MIN TEMP:  51; 6HR MAX TEMP:  54; 6HR PCP:  0.01;

WAHPETON ARPT  PTSUNNY   46  43  87 SE10      29.64S
$$

 *****  WEATHER ACROSS CENTRAL AND WESTERN NORTH DAKOTA  *****

CITY           SKY/WX    TMP DP  RH WIND       PRES   REMARKS
JAMESTOWN      CLOUDY    38  37  97 W8        29.59R FOG
6HR MIN TEMP:  36; 6HR MAX TEMP:  45; 6HR PCP: TRACE;

BISMARCK       CLOUDY    39  35  86 NW6       29.65R
6HR MIN TEMP:  35; 6HR MAX TEMP:  39; 6HR PCP:  0.02;

MINOT          CLOUDY    35  33  92 NW8       29.63R
6HR MIN TEMP:  33; 6HR MAX TEMP:  35; 6HR PCP: TRACE;

MINOT AFB      CLOUDY    32  32 100 NW9       29.63R WCI  24
6HR MIN TEMP:  32; 6HR MAX TEMP:  33; 6HR PCP: TRACE;

GARRISON         N/A     34  32  92 NW9       29.64R
6HR MIN TEMP:  33; 6HR MAX TEMP:  37;

WILLISTON      FAIR      33  32  96 SW3       29.68R
6HR MIN TEMP:  33; 6HR MAX TEMP:  34;

DICKINSON      CLOUDY    36  33  89 W15       29.66R
6HR MIN TEMP:  36; 6HR MAX TEMP:  38; 6HR PCP: TRACE;

HETTINGER      CLOUDY    40  34  79 NW13      29.70R
6HR MIN TEMP:  38; 6HR MAX TEMP:  41;

$$

 *****  OTHER OBSERVATIONS NORTHEAST NORTH DAKOTA  *****

CITY           SKY/WX    TMP DP  RH WIND       PRES   REMARKS
WALHALLA       NOT AVBL
LANGDON        NOT AVBL
CAVALIER       FOG       36  36 100 S3        29.60R VSB<1/4
GRAFTON        FAIR      36  36 100 S8        29.61R FOG
CANDO          NOT AVBL
FORT TOTTEN      N/A     35  35 100 NW3       29.95S
ROLLA          LGT RAIN  32  32 100 NW9       29.59R WCI  24
RUGBY          FOG       32  32 100 W13       29.61R VSB 1/2 WCI  22
 ***** THE ABOVE OBSERVATIONS ARE NON NWS ARE NOT QUALITY
        CONTROLLED AND MAY MIS-REPORT RAIN FOR SNOW...
$$

 *****  OTHER OBSERVATIONS SOUTHEAST NORTH DAKOTA *****

CITY           SKY/WX    TMP DP  RH WIND       PRES   REMARKS
COOPERSTOWN    FOG       37  37 100 W7        29.59R VSB 1/4
VALLEY CITY    PTSUNNY   41  41 100 S10       29.60R FOG
OAKES          NOT AVBL
GWINNER        FAIR      48  46  93 S10       29.60R
SHEYENNE NWR     N/A     48  46  93 S7        29.95S
BUFFALO        NOT AVBL
WYNDMERE         N/A     46  46 100 SE8         N/A
 ***** THE ABOVE OBSERVATIONS ARE NON NWS ARE NOT QUALITY
       CONTROLLED AND MAY MIS-REPORT RAIN FOR SNOW...
$$

  *****  WEATHER ACROSS NORTHERN MINNESOTA  *****

CITY           SKY/WX    TMP DP  RH WIND       PRES   REMARKS
FLAG ISLAND    MOCLDY    39  32  75 SE10      29.67F
WARROAD        RAIN      41  37  87 SE7       29.68R
ROSEAU         FAIR      41  36  81 SE9       29.65R
HALLOCK        FAIR      37  36  93 SE9       29.58R
THF RVR FALLS  FAIR      41  40  96 SE10      29.61F FOG
6HR MIN TEMP:  39; 6HR MAX TEMP:  42; 6HR PCP: TRACE;

HALSTAD          N/A     47  46  97 S12         N/A
FOSSTON        DRIZZLE   45  43  93 SE16      29.62F
BAUDETTE       CLOUDY    40  33  76 SE9       29.69R
6HR MIN TEMP:  40; 6HR MAX TEMP:  42;

WASKISH        CLOUDY    43  39  87 S3        29.74R
CROOKSTON      FAIR      46  46 100 S16       29.61R
$$
  *****  WEATHER ACROSS CENTRAL AND WEST MINNESOTA  *****

CITY           SKY/WX    TMP DP  RH WIND       PRES   REMARKS
BEMIDJI        FAIR      40  38  91 E5        29.70R
PARK RAPIDS    FAIR      44  39  82 SE10      29.69F
6HR MIN TEMP:  41; 6HR MAX TEMP:  47; 6HR PCP: TRACE;

WADENA         MOCLDY    43  43 100 SE9       29.70R
DETROIT LAKES  FAIR      45  43  93 S12G20    29.68R FOG
MOORHEAD       LGT RAIN  48  46  93 S16G25    29.63S
FERGUS FALLS   FAIR      48  48 100 S16       29.68S
ELBOW LAKE     FAIR      49  48  96 S16       29.67R
MORRIS MN      FAIR      50  48  93 SE16      29.66F FOG
STAPLES        MOCLDY    46  43  87 SE7       29.72R
WHEATON        FAIR      48  46  93 SE15      29.65S
$$
  *****  WEATHER ELSEWHERE ACROSS MINNESOTA  *****

CITY           SKY/WX    TMP DP  RH WIND       PRES   REMARKS
DULUTH         FAIR      40  33  76 E16       29.87F
6HR MIN TEMP:  37; 6HR MAX TEMP:  40;

INTRNTL FALLS  LGT RAIN  45  35  68 S7        29.77R
6HR MIN TEMP:  39; 6HR MAX TEMP:  45; 6HR PCP: TRACE;

ELY            FAIR      39  32  75 SE10      29.87F
CLOQUET        FAIR      37  32  81 E7        29.85F
BRAINERD       MOCLDY    45  39  79 SE9G24    29.76F
6HR MIN TEMP:  43; 6HR MAX TEMP:  48; 6HR PCP: TRACE;

HIBBING        CLOUDY    40  34  79 SE14      29.81F
6HR MIN TEMP:  35; 6HR MAX TEMP:  41; 6HR PCP: TRACE;

ALEXANDRIA     MOCLDY    50  48  93 S13       29.70S
6HR MIN TEMP:  47; 6HR MAX TEMP:  52; 6HR PCP:  0.05;

SAINT CLOUD    FAIR      49  45  86 S13       29.76S
6HR MIN TEMP:  46; 6HR MAX TEMP:  51;

MINNEAPOLIS    CLOUDY    50  43  77 SE12      29.83F
6HR MIN TEMP:  48; 6HR MAX TEMP:  52;

$$

  *****  WEATHER ACROSS SOUTH DAKOTA  *****

CITY           SKY/WX    TMP DP  RH WIND       PRES   REMARKS
SIOUX FALLS    RAIN      54  54 100 S17       29.70F FOG
6HR MIN TEMP:  53; 6HR MAX TEMP:  55; 6HR PCP:  0.03;

BROOKINGS      LGT RAIN  52  50  93 S20G28    29.65F
WATERTOWN      CLOUDY    49  48  97 S15       29.64R FOG
6HR MIN TEMP:  47; 6HR MAX TEMP:  50;

HURON          CLOUDY    51  50  96 S17G25    29.61R
6HR MIN TEMP:  51; 6HR MAX TEMP:  54; 6HR PCP: TRACE;

SISSETON         N/A     52  50  93 S22       29.61R
ABERDEEN       CLOUDY    49  45  86 SE12      29.58R
6HR MIN TEMP:  49; 6HR MAX TEMP:  53;

MITCHELL       LGT RAIN  53  52  96 S21       29.63S FOG
PIERRE         FAIR      44  40  85 NW5       29.56R
6HR MIN TEMP:  44; 6HR MAX TEMP:  58;

MOBRIDGE       CLOUDY    41  34  76 NW16      29.54R
RAPID CITY     LGT RAIN  45  37  73 NW26G33   29.73R
6HR MIN TEMP:  45; 6HR MAX TEMP:  57; 6HR PCP:  0.01;

$$

  *****  SOME WEATHER IN NEARBY STATES *****

CITY           SKY/WX    TMP DP  RH WIND       PRES   REMARKS
GLASGOW MT     CLOUDY    29  28  96 S8        29.71R FOG     WCI  21
6HR MIN TEMP:  25; 6HR MAX TEMP:  30;

GREAT FALLS MT FAIR      30  23  75 S10       29.71S WCI  21
6HR MIN TEMP:  28; 6HR MAX TEMP:  35;

CHEYENNE WY    FAIR      38  16  40 N12G31    29.86R
6HR MIN TEMP:  37; 6HR MAX TEMP:  42;

SCOTTSBLUFF NE FAIR      33  24  69 NW10      29.82R WCI  25
6HR MIN TEMP:  33; 6HR MAX TEMP:  48; 6HR PCP: TRACE;

OMAHA NE       LGT RAIN  57  54  89 SE8       29.74F FOG
6HR MIN TEMP:  56; 6HR MAX TEMP:  59; 6HR PCP:  0.20;

DES MOINES IA  CLOUDY    60  53  77 SE14      29.84F THUNDER
6HR MIN TEMP:  58; 6HR MAX TEMP:  60;

DAVENPORT IA   FAIR      50  48  93 SE14      30.01S FOG
6HR MIN TEMP:  50; 6HR MAX TEMP:  55;

CHICAGO IL     MOCLDY    46  43  89 S6        30.12R FOG
6HR MIN TEMP:  41; 6HR MAX TEMP:  47;

EAU CLAIRE WI  MOCLDY    46  37  71 E8        29.93S
6HR MIN TEMP:  46; 6HR MAX TEMP:  50;

LA CROSSE WI   MOCLDY    52  44  74 SE9       29.95S
6HR MIN TEMP:  45; 6HR MAX TEMP:  54;

$$

  *****  SOME NATIONAL WEATHER *****

CITY           SKY/WX    TMP DP  RH WIND       PRES   REMARKS
LA GUARDIA NY  FAIR      45  32  60 NW12      30.13R
6HR MIN TEMP:  45; 6HR MAX TEMP:  53;



USA.gov is the U.S. government's official web portal to all federal, state and local government web resources and services.